{"data":{"norad_id":58060,"intl_designator":"2023-158K","name":"STARLINK-30558","alt_names":[],"object_type":"PAYLOAD","status":"ACTIVE","operator":null,"country":"US","launch_date":"2023-10-13","launch_site_code":"AFETR","launch_vehicle":null,"mission":null,"orbit_class":"UNKNOWN","rcs_meters":null,"size_class":null,"mass_kg":null,"dimensions":null,"purposes":["comms"],"wikipedia_slug":null,"has_3d_model":false,"image_url":null,"decayed_at":null,"tle_current":{"epoch":"2026-05-25T04:04:41.513088Z","epoch_age_seconds":53757,"freshness":"FRESH","line1":"1 58060U 23158K   26145.16992492  .00003183  00000+0  12510-3 0  9994","line2":"2 58060  43.0027 315.3728 0001469 271.8913  88.1771 15.27588343145263","mean_motion":15.27588343,"eccentricity":0.0001469,"inclination_deg":43.0027,"raan_deg":315.3728,"arg_perigee_deg":271.8913,"mean_anomaly_deg":88.1771,"bstar":0.0001251,"rev_number":14526,"period_min":94.266233871097,"perigee_km":482.0162096423,"apogee_km":484.03201877765,"semimajor_km":6861.16111421,"source":"CELESTRAK","updated_at":"2026-05-25T13:38:18.500527Z"}}}